Flag for Germany Weather past 2 weeks in Kamp-Lintfort, North Rhine-Westphalia, Germany

Now
74 °F

Scattered clouds.


Feels Like: 77 °F
Forecast: 52 / 78 °F
Wind: 3 mph from North

Location: Duesseldorf

Current Time: Aug 1, 2015 at 2:25:11 PM

Latest Report: Aug 1, 2015 at 2:00 PM


Visibility: 31 mi

Pressure: 29.98 "Hg

Humidity: 34%

Dew point: 44 °F

Location of Kamp-LintfortLocation

Historic Weather in Kamp-Lintfort — Graph

°F

Kamp-Lintfort temperature yesterday

Maximum temperature yesterday: 68 °F (at 3:00 PM)
Minimum temperature yesterday: 46 °F (at 4:00 AM)
Average temperature yesterday: 59 °F

Past Weeks' High & Low Weather Summary

 TemperatureHumidityPressure
High90 °F (Jul 17, 4:00 PM)98% (Jul 31, 4:00 AM)30.16 "Hg (Jul 31, 4:00 AM)
Low46 °F (Jul 31, 4:00 AM)30% (Jul 17, 4:00 PM)29.50 "Hg (Jul 25, 7:00 AM)
Average65 °F68%29.88 "Hg
* Reported Jul 17 1:00 PM — Aug 1 1:00 PM, Kamp-Lintfort, Weather by CustomWeather, © 2015

Note: Actual official high and low records may vary slightly from our data, if they occured in-between our weather recording intervals... More about our weather records

Advertising

Kamp-Lintfort weather history for previous 24 hours

 ConditionsComfort  
Time TempWeatherWind HumidityBarometerVisibility
1:00 PM
Sat, Aug 1
72 °FScattered clouds.3 mph37%29.98 "Hg31 mi
12:00 PM71 °FScattered clouds.3 mph38%29.98 "Hg31 mi
11:00 AM68 °FScattered clouds.2 mph44%29.99 "Hg31 mi
10:00 AM64 °FScattered clouds.1 mph50%30.00 "Hg31 mi
9:00 AM60 °FPassing clouds.1 mph60%29.99 "Hg31 mi
8:00 AM55 °FPassing clouds.2 mph71%29.99 "Hg25 mi
7:00 AM49 °FScattered clouds.1 mph84%29.99 "Hg25 mi
4:00 AM53 °FOvercast.1 mph72%30.01 "Hg31 mi
3:00 AM55 °FOvercast.2 mph65%30.01 "Hg31 mi
2:00 AM57 °FOvercast.5 mph59%30.02 "Hg31 mi
1:00 AM56 °FOvercast.5 mph62%30.03 "Hg31 mi
12:00 AM56 °FOvercast.3 mph64%30.04 "Hg31 mi
11:00 PM
Fri, Jul 31
59 °FOvercast.3 mph56%30.04 "Hg31 mi
10:00 PM60 °FPassing clouds.3 mph52%30.03 "Hg25 mi
9:00 PM63 °FPartly sunny.3 mph46%30.03 "Hg25 mi
8:00 PM66 °FScattered clouds.3 mph41%30.04 "Hg25 mi
7:00 PM68 °FPartly sunny.3 mph37%30.05 "Hg25 mi
6:00 PM68 °FPartly sunny.2 mph36%30.06 "Hg25 mi
4:00 PM67 °FPartly sunny.2 mph37%30.09 "Hg25 mi
3:00 PM68 °FPartly sunny.1 mph38%30.11 "Hg28 mi
2:00 PM65 °FPartly sunny.3 mph41%30.13 "Hg28 mi
Weather by CustomWeather, © 2015

See weather overviewHow to use our weather pages